Wind_Speed
20 21 22 23 22 22 21 21 21 21 20 20 20 20 20 20 20 22 23 24 25 27 28 29 30 31 32 33 34 35 36 37 37 38 38 38 39 39 39 39 39 38 38
24 25 27 27 27 27 26 26 25 26 25 24 23 22 23 23 24 25 26 27 28 30 32 33 34 35 36 38 39 40 40 41 41 42 43 43 43 44 43 43 42 42 42
28 30 32 33 33 32 32 32 31 30 29 28 27 27 26 26 26 27 29 30 31 32 34 35 37 38 40 41 43 44 44 45 46 46 46 47 47 47 47 46 45 45 45
34 36 37 39 39 38 37 37 35 34 32 31 30 30 29 29 29 30 31 32 33 35 36 37 39 41 42 44 46 47 47 48 48 49 50 50 50 50 50 50 49 48 47
39 40 41 41 41 42 41 39 37 34 33 33 32 31 31 31 30 31 33 34 35 37 38 39 41 43 44 46 48 49 50 50 51 52 53 53 54 53 53 53 52 52 51
41 40 39 40 41 42 41 39 37 34 32 33 32 31 29 29 31 32 34 35 37 39 41 42 44 45 47 49 50 52 53 54 55 56 57 57 57 57 57 57 56 55 55
39 37 34 33 33 34 35 35 33 33 31 29 29 29 28 28 31 33 35 37 39 41 43 44 46 47 49 51 53 55 56 58 59 60 61 62 62 62 62 61 61 60 59
34 29 25 27 26 28 29 29 29 30 28 26 27 27 28 30 32 34 38 40 42 44 46 47 48 50 52 54 56 57 59 61 62 63 64 65 66 66 66 66 65 64 63
34 29 27 25 24 24 24 25 27 26 27 28 28 30 32 34 36 38 41 44 45 48 50 51 53 55 57 58 60 62 62 64 66 67 68 69 69 70 70 70 69 68 67
34 30 28 27 25 24 24 25 25 27 29 31 33 34 37 40 43 46 46 48 50 52 55 56 58 60 62 63 65 66 66 67 69 70 71 71 72 72 72 72 71 71 70
34 31 29 28 28 28 28 29 30 31 33 36 38 40 42 45 48 50 53 54 56 58 60 61 63 65 66 67 68 69 68 69 70 71 72 72 73 73 73 73 73 72 72
34 32 31 31 30 31 33 34 35 37 38 41 43 45 48 50 52 54 56 58 60 62 64 65 67 68 68 69 69 69 69 69 70 71 72 73 73 73 74 74 74 73 73
36 34 34 35 35 36 37 38 40 42 43 46 48 51 53 55 56 58 60 61 63 64 66 67 68 69 69 70 70 70 70 70 71 71 71 72 72 72 72 72 72 72 72
39 38 38 39 39 40 41 43 44 46 48 50 52 54 56 58 60 61 62 64 64 65 67 68 68 69 69 69 70 70 69 68 68 68 69 69 69 69 68 68 67 67 67
42 42 44 44 44 45 46 47 48 50 52 53 55 57 59 60 62 63 64 65 66 66 66 67 67 67 67 68 68 67 67 67 66 65 65 65 64 63 62 62 62 62 63
46 47 48 48 47 48 49 50 51 52 54 56 58 59 60 61 62 63 64 64 64 64 63 63 64 64 64 65 65 65 64 63 62 60 58 57 57 56 56 55 56 55 56
50 50 51 50 51 51 51 52 53 55 56 57 58 59 60 60 61 62 62 61 61 61 60 60 61 62 62 62 62 61 59 57 55 53 51 50 49 48 48 48 48 48 48
52 52 52 53 53 53 53 54 55 55 56 57 57 58 58 59 58 58 58 58 58 59 58 58 58 59 59 58 56 55 53 50 47 44 42 42 41 41 41 41 41 41 41
53 54 54 54 54 54 54 55 55 55 56 56 56 56 56 55 55 55 55 55 55 55 56 55 55 54 53 51 50 47 44 42 40 38 37 37 37 36 36 36 35 35 35
54 54 54 54 55 55 55 55 55 55 54 54 53 52 52 52 52 52 52 52 52 53 52 50 48 46 44 43 41 39 37 36 36 36 35 34 34 33 32 32 31 31 31
55 55 55 55 55 54 54 54 53 52 50 50 49 49 49 49 50 50 50 50 49 48 45 43 40 38 36 36 35 34 33 33 34 34 33 32 31 31 30 30 30 29 29
54 54 54 54 53 53 52 51 50 49 48 47 48 48 48 48 48 47 47 46 44 40 37 35 33 32 31 31 32 32 33 32 31 30 30 30 29 28 28 28 27 27 26
52 52 52 51 50 49 49 48 47 47 47 47 47 47 47 46 44 43 41 39 36 32 30 28 27 28 29 30 31 30 30 29 28 27 27 26 27 26 25 24 24 24 24
49 49 49 48 47 47 46 46 46 46 46 45 45 44 42 41 39 36 34 31 28 27 25 26 27 28 29 28 27 26 25 24 24 24 23 23 23 23 23 22 21 21 21
47 46 46 45 45 45 45 45 45 45 44 43 41 38 36 33 31 28 25 23 22 22 23 25 26 26 26 26 25 23 22 21 21 21 20 20 19 19 18 18 18 18 18
44 43 43 43 44 43 43 43 42 41 39 37 35 31 28 25 22 20 17 16 17 19 22 23 24 24 24 22 21 20 19 18 18 18 18 16 15 14 13 13 14 14 14
Wind_Direction
297 294 291 287 282 277 272 268 267 265 264 265 266 267 269 271 272 273 274 274 275 276 277 277 277 278 278 279 279 279 280 280 279 279 278 277 276 275 273 272 272 271 270
295 292 288 284 279 274 269 265 264 263 263 263 263 265 267 269 271 273 274 274 275 276 276 276 277 277 278 278 279 279 278 278 278 277 277 276 276 275 274 272 271 270 269
290 288 284 280 276 272 268 265 262 262 261 261 262 263 265 268 271 272 274 275 276 277 278 277 277 277 277 278 278 277 277 276 276 276 275 275 275 274 273 272 271 269 268
284 282 279 277 273 270 268 265 263 262 262 262 262 263 265 266 268 271 274 276 278 279 279 278 278 277 277 277 277 276 276 275 275 275 274 273 273 273 272 272 271 270 268
284 282 279 276 271 269 268 267 265 263 263 263 264 264 264 265 268 272 275 277 279 280 280 279 278 278 277 276 276 276 276 275 275 274 274 273 273 272 272 271 271 269 268
289 287 283 281 276 273 271 267 264 263 264 264 263 264 266 269 274 277 278 279 280 280 280 280 279 278 277 277 276 276 275 275 274 274 273 273 273 272 271 271 270 269 268
300 297 293 290 282 278 275 268 264 262 266 267 267 270 275 280 282 282 283 282 282 281 281 281 280 279 278 277 276 276 276 275 275 274 273 273 272 272 271 270 270 268 267
315 309 299 298 289 281 280 272 267 268 272 278 282 283 285 285 285 285 286 286 285 284 282 282 281 280 280 279 278 277 276 276 275 275 274 273 273 272 271 270 269 268 266
319 318 315 311 299 289 286 279 277 276 282 286 289 292 292 291 290 288 288 289 288 287 286 286 284 283 282 282 281 279 278 277 276 275 275 274 273 272 271 270 269 267 266
317 321 319 315 312 303 295 293 294 295 294 292 292 293 293 293 293 294 292 291 290 289 288 288 287 285 284 283 282 280 279 278 277 276 275 274 273 272 271 270 269 268 267
317 317 317 314 311 307 304 301 301 301 297 296 294 294 293 292 292 292 293 293 291 290 289 288 287 286 285 284 283 281 281 279 278 277 276 275 274 273 272 271 270 269 267
312 312 309 308 305 303 302 300 298 297 296 295 294 293 292 291 291 291 291 290 290 290 289 289 288 287 286 285 283 282 281 280 279 278 277 276 275 274 273 272 271 270 268
307 308 306 303 302 300 298 296 295 294 293 293 291 291 290 290 290 289 289 289 288 288 288 288 287 287 286 285 284 283 283 281 280 279 278 277 276 275 274 273 271 269 267
304 304 304 302 300 298 296 295 293 292 292 291 290 290 289 288 288 288 288 288 288 288 288 287 287 287 286 286 285 285 284 283 282 281 280 278 277 276 274 273 271 269 267
302 302 301 300 298 297 295 294 293 291 290 289 289 288 287 287 288 288 289 288 288 288 288 288 288 288 288 287 287 287 286 285 284 283 281 280 278 276 274 273 271 269 268
300 300 299 298 296 295 294 292 291 289 288 288 288 288 288 288 288 288 289 289 289 290 290 289 289 289 289 289 288 288 288 287 286 284 282 280 278 277 275 273 272 270 269
299 299 298 296 295 294 292 291 290 289 289 288 288 288 289 289 289 290 290 291 291 291 291 291 291 291 290 290 290 290 289 288 287 285 283 281 279 278 276 274 272 271 270
297 296 295 294 294 293 292 291 290 290 290 289 289 289 290 290 290 291 292 292 293 293 294 294 293 293 293 293 292 291 290 289 288 286 284 282 280 279 277 275 273 271 270
295 295 294 294 293 293 292 292 291 291 290 290 290 291 291 292 292 293 294 295 295 295 296 297 297 296 296 295 295 294 293 291 290 288 286 284 281 280 278 276 274 272 270
294 294 293 293 293 293 293 292 292 291 291 291 292 292 293 294 294 295 296 297 297 298 299 299 300 300 299 298 298 297 295 293 292 290 288 285 282 280 278 276 274 272 270
292 292 292 293 293 293 293 293 293 293 293 293 294 294 295 296 296 297 298 299 300 301 301 302 302 302 301 301 300 299 297 296 294 292 290 286 283 280 277 275 274 272 270
291 292 292 293 293 293 293 293 294 295 295 296 296 296 297 297 298 300 300 301 302 303 304 305 305 304 304 303 302 301 299 298 296 294 291 288 285 281 278 275 272 270 269
291 292 293 293 293 294 294 295 295 296 296 297 297 298 299 300 301 302 302 303 304 306 308 309 309 309 308 307 306 304 303 302 301 298 295 291 287 283 279 276 272 269 268
292 293 293 294 294 295 295 296 296 297 298 298 299 300 300 301 302 302 303 304 307 311 313 314 315 315 315 314 313 312 310 308 307 305 301 297 292 287 280 275 272 270 269
292 293 294 294 295 295 296 297 297 298 299 300 300 301 301 301 301 302 303 306 311 314 317 320 321 321 321 321 320 318 317 315 314 312 309 305 299 293 284 276 272 271 270
294 294 294 295 295 296 297 298 299 300 300 301 301 301 301 300 300 302 305 311 316 321 324 327 328 329 329 329 329 330 329 326 323 321 319 315 308 299 291 284 277 273 270
Height
5876 5875 5873 5872 5871 5870 5869 5868 5867 5866 5865 5865 5864 5863 5863 5862 5861 5860 5860 5859 5859 5858 5858 5857 5856 5855 5855 5854 5853 5852 5852 5851 5850 5850 5849 5849 5849 5848 5848 5849 5849 5849 5850
5872 5870 5868 5867 5865 5864 5864 5862 5861 5861 5860 5859 5858 5858 5857 5857 5856 5855 5854 5853 5853 5852 5851 5850 5849 5848 5847 5846 5845 5844 5843 5842 5841 5841 5840 5839 5839 5838 5838 5838 5839 5839 5839
5865 5863 5861 5860 5858 5857 5856 5855 5854 5854 5854 5853 5852 5852 5851 5850 5850 5849 5847 5846 5845 5844 5843 5842 5841 5840 5838 5837 5836 5835 5834 5833 5832 5831 5830 5829 5828 5827 5827 5827 5827 5828 5828
5858 5855 5853 5851 5849 5848 5846 5846 5846 5846 5846 5846 5845 5845 5844 5843 5842 5841 5840 5839 5837 5836 5835 5834 5832 5830 5829 5828 5826 5825 5824 5823 5821 5820 5819 5818 5817 5816 5815 5815 5815 5815 5816
5851 5847 5844 5841 5840 5838 5838 5837 5837 5838 5838 5838 5838 5837 5836 5835 5835 5834 5832 5831 5829 5827 5825 5824 5822 5821 5819 5817 5815 5814 5813 5811 5810 5808 5807 5806 5804 5804 5803 5802 5802 5802 5802
5844 5840 5836 5833 5830 5830 5829 5829 5830 5830 5830 5830 5830 5829 5828 5827 5826 5825 5824 5822 5821 5818 5816 5814 5812 5811 5809 5806 5804 5802 5800 5798 5797 5795 5793 5792 5791 5790 5789 5788 5788 5788 5788
5837 5833 5829 5826 5824 5822 5822 5822 5822 5822 5823 5822 5822 5821 5820 5819 5818 5817 5815 5813 5811 5809 5806 5804 5801 5799 5796 5794 5791 5789 5786 5784 5782 5780 5778 5776 5775 5774 5773 5772 5772 5772 5772
5831 5827 5823 5820 5817 5816 5816 5815 5816 5816 5816 5815 5814 5813 5813 5812 5810 5808 5806 5804 5801 5798 5795 5792 5789 5786 5782 5779 5777 5775 5771 5769 5766 5764 5761 5759 5758 5757 5756 5755 5755 5755 5755
5827 5823 5819 5816 5813 5812 5810 5810 5809 5809 5809 5809 5807 5806 5804 5802 5800 5799 5796 5792 5789 5786 5782 5779 5775 5772 5768 5764 5760 5758 5756 5752 5749 5746 5743 5741 5739 5738 5737 5736 5735 5736 5736
5822 5818 5815 5812 5810 5808 5806 5805 5804 5803 5802 5801 5799 5797 5795 5792 5788 5785 5783 5780 5776 5771 5767 5763 5759 5755 5751 5747 5743 5739 5737 5734 5729 5726 5723 5720 5718 5716 5715 5714 5714 5715 5716
5816 5813 5811 5808 5805 5803 5801 5799 5797 5796 5794 5792 5790 5787 5784 5781 5777 5773 5768 5764 5760 5755 5751 5746 5741 5737 5732 5727 5723 5719 5717 5713 5709 5705 5702 5699 5697 5695 5693 5692 5692 5693 5694
5810 5807 5805 5802 5799 5797 5795 5792 5790 5787 5785 5782 5779 5776 5772 5768 5764 5759 5754 5749 5744 5739 5733 5728 5722 5717 5712 5707 5703 5699 5696 5692 5688 5685 5681 5678 5675 5673 5671 5670 5670 5670 5671
5802 5800 5797 5795 5792 5789 5787 5784 5781 5778 5774 5771 5767 5763 5759 5754 5749 5744 5739 5733 5729 5723 5717 5710 5704 5698 5692 5687 5682 5679 5675 5671 5667 5663 5659 5656 5653 5651 5649 5647 5647 5646 5647
5793 5790 5788 5785 5782 5779 5776 5773 5769 5766 5762 5758 5753 5749 5744 5739 5734 5728 5723 5717 5712 5707 5699 5692 5686 5679 5673 5667 5661 5658 5654 5650 5646 5641 5637 5634 5631 5628 5626 5625 5624 5623 5624
5782 5780 5777 5774 5770 5767 5764 5760 5756 5752 5748 5744 5739 5734 5728 5723 5718 5712 5706 5699 5694 5689 5684 5674 5668 5661 5654 5648 5642 5637 5633 5628 5625 5620 5616 5613 5609 5607 5605 5603 5602 5601 5601
5771 5768 5765 5761 5757 5754 5750 5746 5742 5738 5733 5728 5723 5718 5712 5707 5701 5695 5689 5682 5676 5670 5666 5658 5650 5643 5637 5630 5624 5618 5613 5608 5604 5600 5596 5592 5589 5587 5585 5583 5582 5581 5580
5758 5754 5751 5747 5743 5740 5736 5731 5727 5723 5718 5712 5707 5702 5697 5691 5685 5679 5672 5666 5659 5653 5648 5642 5633 5626 5619 5613 5606 5600 5595 5590 5585 5581 5577 5574 5571 5569 5567 5565 5564 5563 5562
5745 5741 5737 5733 5729 5725 5720 5716 5712 5707 5702 5697 5691 5686 5681 5675 5669 5663 5657 5650 5644 5637 5631 5625 5618 5610 5602 5595 5589 5583 5578 5573 5569 5566 5562 5559 5556 5554 5552 5550 5548 5548 5547
5731 5727 5722 5718 5713 5709 5705 5700 5696 5691 5686 5681 5676 5670 5665 5659 5654 5648 5642 5635 5629 5622 5615 5609 5602 5594 5587 5580 5574 5569 5564 5560 5556 5553 5549 5546 5544 5541 5539 5537 5536 5535 5534
5717 5712 5708 5703 5699 5694 5690 5685 5681 5676 5671 5666 5661 5656 5651 5645 5640 5634 5628 5621 5615 5608 5600 5594 5587 5581 5574 5567 5562 5557 5553 5549 5545 5541 5538 5535 5532 5530 5528 5526 5525 5524 5523
5702 5698 5693 5689 5684 5680 5675 5670 5666 5661 5657 5652 5647 5642 5637 5632 5626 5620 5614 5608 5601 5595 5588 5582 5576 5570 5564 5558 5553 5548 5543 5539 5535 5530 5527 5524 5522 5520 5518 5516 5515 5514 5513
5688 5683 5679 5674 5670 5665 5661 5656 5652 5648 5643 5638 5633 5628 5623 5619 5613 5607 5602 5595 5589 5583 5578 5572 5567 5561 5556 5550 5545 5540 5535 5530 5526 5522 5518 5515 5512 5510 5508 5507 5505 5504 5503
5674 5669 5664 5660 5656 5652 5647 5643 5639 5635 5630 5626 5620 5615 5610 5606 5601 5595 5590 5584 5579 5574 5570 5565 5560 5554 5549 5544 5538 5532 5526 5521 5517 5513 5509 5506 5503 5501 5499 5497 5496 5496 5495
5660 5656 5651 5647 5643 5639 5635 5631 5626 5622 5618 5613 5608 5603 5599 5594 5590 5585 5580 5576 5572 5567 5563 5558 5553 5548 5542 5536 5530 5525 5519 5515 5510 5506 5502 5498 5495 5493 5491 5490 5489 5488 5488
5647 5643 5639 5635 5631 5627 5623 5619 5614 5610 5606 5602 5597 5593 5589 5585 5581 5577 5573 5570 5567 5563 5558 5553 5548 5542 5536 5530 5525 5519 5514 5510 5505 5501 5496 5492 5489 5486 5484 5483 5482 5482 5481
5635 5631 5627 5623 5619 5615 5612 5607 5603 5599 5595 5591 5588 5584 5581 5578 5575 5572 5569 5566 5563 5559 5555 5550 5544 5538 5532 5526 5521 5515 5510 5506 5501 5497 5493 5488 5485 5482 5480 5479 5478 5477 5476